TimeCST,TemperatureF,Dew PointF,Humidity,Sea Level PressureIn,VisibilityMPH,Wind Direction,Wind SpeedMPH,Gust SpeedMPH,PrecipitationIn,Events,Conditions,WindDirDegrees,DateUTC
12:15 AM,10.4,8.6,92,30.13,3.0,South,6.9,-,N/A,Snow,Light Snow,190,2012-12-28 06:15:00
12:35 AM,10.4,8.6,92,30.13,4.0,South,8.1,-,N/A,,Overcast,190,2012-12-28 06:35:00
12:55 AM,10.4,8.6,92,30.13,4.0,SSW,6.9,-,N/A,Snow,Light Snow,200,2012-12-28 06:55:00
1:15 AM,10.4,8.6,92,30.12,4.0,SSW,9.2,-,N/A,Snow,Light Snow,200,2012-12-28 07:15:00
1:35 AM,10.4,8.6,92,30.12,4.0,SSW,6.9,-,N/A,,Mostly Cloudy,200,2012-12-28 07:35:00
1:55 AM,10.4,8.6,92,30.11,5.0,South,8.1,-,N/A,,Overcast,190,2012-12-28 07:55:00
2:15 AM,10.4,8.6,92,30.11,3.0,SSW,8.1,-,N/A,Snow,Light Snow,200,2012-12-28 08:15:00
2:35 AM,10.4,6.8,85,30.11,4.0,South,8.1,-,N/A,,Overcast,190,2012-12-28 08:35:00
2:55 AM,10.4,6.8,85,30.11,7.0,South,8.1,-,N/A,,Mostly Cloudy,190,2012-12-28 08:55:00
3:15 AM,8.6,6.8,92,30.11,8.0,SSW,5.8,-,N/A,,Mostly Cloudy,200,2012-12-28 09:15:00
3:35 AM,10.4,6.8,85,30.10,8.0,SSW,6.9,-,N/A,,Overcast,200,2012-12-28 09:35:00
3:55 AM,8.6,6.8,92,30.10,5.0,SSW,5.8,-,N/A,,Scattered Clouds,200,2012-12-28 09:55:00
4:15 AM,8.6,5.0,85,30.10,8.0,South,5.8,-,N/A,,Clear,190,2012-12-28 10:15:00
4:35 AM,6.8,5.0,92,30.09,10.0,SSW,3.5,-,N/A,,Clear,200,2012-12-28 10:35:00
4:55 AM,6.8,5.0,92,30.09,10.0,Calm,Calm,-,N/A,,Clear,0,2012-12-28 10:55:00
5:15 AM,6.8,5.0,92,30.08,10.0,South,4.6,-,N/A,,Partly Cloudy,190,2012-12-28 11:15:00
5:35 AM,6.8,5.0,92,30.08,10.0,SSE,3.5,-,N/A,,Mostly Cloudy,160,2012-12-28 11:35:00
6:15 AM,5.0,1.4,85,30.08,10.0,South,5.8,-,N/A,,Scattered Clouds,190,2012-12-28 12:15:00
6:35 AM,5.0,3.2,92,30.08,10.0,SSW,4.6,-,N/A,,Mostly Cloudy,200,2012-12-28 12:35:00
6:55 AM,6.8,3.2,85,30.07,10.0,South,6.9,-,N/A,,Mostly Cloudy,190,2012-12-28 12:55:00
7:15 AM,6.8,5.0,92,30.07,10.0,South,4.6,-,N/A,,Overcast,180,2012-12-28 13:15:00
7:55 AM,8.6,5.0,85,30.08,7.0,South,3.5,-,N/A,Snow,Light Snow,190,2012-12-28 13:55:00
8:15 AM,8.6,5.0,85,30.07,8.0,South,5.8,-,N/A,,Overcast,190,2012-12-28 14:15:00
8:35 AM,8.6,5.0,85,30.07,5.0,South,5.8,-,N/A,,Overcast,190,2012-12-28 14:35:00
8:55 AM,8.6,5.0,85,30.07,5.0,South,5.8,-,N/A,,Overcast,180,2012-12-28 14:55:00
9:15 AM,6.8,5.0,92,30.07,7.0,South,6.9,-,N/A,,Mostly Cloudy,180,2012-12-28 15:15:00
9:35 AM,6.8,5.0,92,30.08,10.0,South,5.8,-,N/A,,Mostly Cloudy,190,2012-12-28 15:35:00
9:55 AM,8.6,5.0,85,30.08,9.0,South,4.6,-,N/A,,Mostly Cloudy,170,2012-12-28 15:55:00
10:15 AM,8.6,5.0,85,30.08,9.0,South,4.6,-,N/A,,Overcast,180,2012-12-28 16:15:00
10:35 AM,8.6,5.0,85,30.08,9.0,South,5.8,-,N/A,,Overcast,190,2012-12-28 16:35:00
10:55 AM,10.4,6.8,85,30.07,9.0,South,4.6,-,N/A,,Partly Cloudy,190,2012-12-28 16:55:00
11:15 AM,10.4,5.0,79,30.06,10.0,South,6.9,-,N/A,,Clear,180,2012-12-28 17:15:00
11:35 AM,10.4,5.0,79,30.06,10.0,South,8.1,-,N/A,,Clear,180,2012-12-28 17:35:00
12:15 PM,10.4,6.8,85,30.04,10.0,South,9.2,-,N/A,,Partly Cloudy,180,2012-12-28 18:15:00
12:35 PM,10.4,6.8,85,30.03,10.0,South,9.2,-,N/A,,Partly Cloudy,190,2012-12-28 18:35:00
12:55 PM,12.2,6.8,79,30.03,10.0,South,8.1,-,N/A,,Clear,180,2012-12-28 18:55:00
1:15 PM,12.2,6.8,79,30.02,10.0,South,9.2,-,N/A,,Partly Cloudy,190,2012-12-28 19:15:00
1:35 PM,14.0,6.8,73,30.00,10.0,South,9.2,-,N/A,,Clear,180,2012-12-28 19:35:00
1:55 PM,14.0,6.8,73,30.01,10.0,SSW,6.9,-,N/A,,Clear,200,2012-12-28 19:55:00
2:15 PM,14.0,6.8,73,30.01,10.0,South,9.2,-,N/A,,Clear,190,2012-12-28 20:15:00
2:35 PM,14.0,6.8,73,30.00,10.0,South,6.9,-,N/A,,Clear,170,2012-12-28 20:35:00
2:55 PM,12.2,6.8,79,30.01,10.0,South,6.9,-,N/A,,Clear,180,2012-12-28 20:55:00
3:15 PM,10.4,6.8,85,30.01,10.0,South,6.9,-,N/A,,Partly Cloudy,190,2012-12-28 21:15:00
3:35 PM,12.2,6.8,79,30.01,10.0,South,6.9,-,N/A,,Partly Cloudy,190,2012-12-28 21:35:00
3:55 PM,12.2,6.8,79,30.01,10.0,SW,4.6,-,N/A,,Clear,230,2012-12-28 21:55:00
4:15 PM,14.0,6.8,73,30.01,10.0,SW,5.8,-,N/A,,Partly Cloudy,230,2012-12-28 22:15:00
4:35 PM,14.0,6.8,73,30.01,10.0,SSW,6.9,-,N/A,,Scattered Clouds,210,2012-12-28 22:35:00
4:55 PM,12.2,6.8,79,30.01,10.0,SW,5.8,-,N/A,,Scattered Clouds,220,2012-12-28 22:55:00
5:15 PM,14.0,6.8,73,30.01,10.0,SW,5.8,-,N/A,,Partly Cloudy,220,2012-12-28 23:15:00
5:35 PM,14.0,6.8,73,30.01,10.0,SW,5.8,-,N/A,,Partly Cloudy,230,2012-12-28 23:35:00
5:55 PM,14.0,6.8,73,30.01,10.0,WSW,5.8,-,N/A,,Partly Cloudy,240,2012-12-28 23:55:00
6:15 PM,14.0,6.8,73,30.01,10.0,SW,4.6,-,N/A,,Scattered Clouds,230,2012-12-29 00:15:00
6:35 PM,14.0,6.8,73,30.01,2.5,SW,3.5,-,N/A,Snow,Light Snow,220,2012-12-29 00:35:00
6:55 PM,14.0,8.6,79,30.01,2.5,WSW,5.8,-,0.01,Snow,Light Snow,240,2012-12-29 00:55:00
7:15 PM,14.0,8.6,79,30.01,3.0,West,4.6,-,N/A,Snow,Light Snow,260,2012-12-29 01:15:00
7:35 PM,14.0,8.6,79,30.00,5.0,West,8.1,-,0.02,Snow,Light Snow,260,2012-12-29 01:35:00
7:55 PM,14.0,8.6,79,30.00,10.0,WSW,6.9,-,0.02,,Overcast,250,2012-12-29 01:55:00
8:15 PM,14.0,6.8,73,29.99,10.0,WSW,5.8,-,N/A,,Overcast,240,2012-12-29 02:15:00
8:35 PM,14.0,6.8,73,29.99,10.0,WSW,6.9,-,N/A,,Overcast,240,2012-12-29 02:35:00
8:55 PM,14.0,6.8,73,29.99,10.0,WSW,6.9,-,N/A,,Overcast,250,2012-12-29 02:55:00
9:15 PM,14.0,6.8,73,29.99,10.0,WSW,4.6,-,N/A,Snow,Light Snow,250,2012-12-29 03:15:00
9:35 PM,14.0,8.6,79,29.98,10.0,West,5.8,-,N/A,,Overcast,270,2012-12-29 03:35:00
9:55 PM,14.0,8.6,79,29.98,10.0,WSW,5.8,-,N/A,,Overcast,240,2012-12-29 03:55:00
10:15 PM,14.0,8.6,79,29.98,10.0,Calm,Calm,-,N/A,,Overcast,0,2012-12-29 04:15:00
10:35 PM,14.0,8.6,79,29.98,10.0,Calm,Calm,-,N/A,,Mostly Cloudy,0,2012-12-29 04:35:00
10:55 PM,14.0,8.6,79,29.99,10.0,West,4.6,-,N/A,,Mostly Cloudy,270,2012-12-29 04:55:00
11:15 PM,14.0,8.6,79,29.99,10.0,West,3.5,-,N/A,,Overcast,280,2012-12-29 05:15:00
11:35 PM,14.0,8.6,79,29.99,10.0,WNW,4.6,-,N/A,,Overcast,300,2012-12-29 05:35:00
11:55 PM,14.0,8.6,79,29.99,10.0,WNW,4.6,-,N/A,Snow,Light Snow,300,2012-12-29 05:55:00